Location: Vancouver
(49.2500°N, 123.1330°W)
Time: 04:38:49
(UTC-07:00)

Iridium 35 - Visible Passes

Search period start: 25 March 2017 00:00
Search period end: 04 April 2017 00:00
Orbit: 776 x 779 km, 86.4° (Epoch: 23 March)

Date Brightness Start Highest point End Pass type
(mag) Time Alt. Az. Time Alt. Az. Time Alt. Az.
25 Mar 6.9 00:04:49 10° N 00:07:05 26° N 00:07:05 26° N visible
25 Mar 7.7 01:46:56 10° NW 01:47:34 12° NW 01:47:34 12° NW visible
25 Mar 6.8 23:31:25 10° N 23:33:48 25° NNE 23:33:48 25° NNE visible
26 Mar 7.4 01:12:35 10° NNW 01:14:16 18° NW 01:14:16 18° NW visible
26 Mar 6.9 22:58:15 10° NNE 23:00:30 21° NE 23:00:30 21° NE visible
27 Mar 7.0 00:38:38 10° NNW 00:40:59 25° NNW 00:40:59 25° NNW visible
27 Mar 7.1 22:25:28 10° NNE 22:27:13 15° NE 22:27:13 15° NE visible
28 Mar 6.6 00:04:56 10° N 00:07:42 32° N 00:07:42 32° N visible
28 Mar 7.7 01:48:06 10° NW 01:48:11 10° NW 01:48:11 10° NW visible
28 Mar 6.4 23:31:25 10° N 23:34:26 34° NNE 23:34:26 34° NNE visible
29 Mar 7.4 01:13:06 10° NNW 01:14:54 17° NW 01:14:54 17° NW visible
29 Mar 6.4 22:58:06 10° N 23:01:09 28° NE 23:01:09 28° NE visible
30 Mar 6.9 00:38:57 10° NNW 00:41:38 25° NW 00:41:38 25° NW visible
30 Mar 6.7 22:25:03 10° NNE 22:27:53 21° NE 22:27:53 21° NE visible
31 Mar 6.4 00:05:07 10° N 00:08:22 36° NNW 00:08:22 36° NNW visible
31 Mar 7.0 21:52:35 10° NE 21:54:38 13° ENE 21:54:38 13° ENE visible
31 Mar 5.9 23:31:29 10° N 23:35:07 46° N 23:35:07 46° N visible
01 Apr 7.5 01:13:54 10° NW 01:15:35 14° WNW 01:15:35 14° WNW visible
01 Apr 5.8 22:58:02 10° N 23:01:51 41° NE 23:01:51 41° NE visible
02 Apr 7.0 00:39:22 10° NNW 00:42:21 23° WNW 00:42:21 23° WNW visible
02 Apr 6.2 22:24:48 10° NNE 22:28:37 29° ENE 22:28:37 29° ENE visible
03 Apr 6.3 00:05:22 10° NNW 00:09:06 36° NW 00:09:06 36° NW visible
03 Apr 6.6 21:51:55 10° NNE 21:55:23 18° ENE 21:55:23 18° ENE visible
03 Apr 5.6 23:31:37 10° N 23:35:52 56° NNW 23:35:52 56° NNW visible
